[[{"header":{"parameterUnit":"m.s-1","parameterCategory":1,"la1":30.2991,"la2":30.254,"lo1":-89.0895,"lo2":-89.0444,"dy":0.0017,"dx":0.0017,"nx":28,"ny":28,"refTime":"2025-05-19T03:00:00:Z","depth":0,"parameterNumber":2,"parameterNumberName":"U-component_of_WINDS"},"data":[0,0,0,0,0,0,0,0,0,0,0,0,0,0,0,0,0,0,0,0,0,0,0,0,0,0,0,0,0,0,0,0,0,0,0,0,0,0,0,0,0,0,0,0,0,0,0,0,0,0,0,0,0,0,0,0,0,0,-1.589,-1.5891,0,-1.5965,-1.5966,-1.5967,-1.5988,-1.5987,-1.5987,-1.5986,-1.6066,-1.6068,-1.6071,0,0,0,0,0,0,0,0,0,0,0,0,0,-1.5767,-1.5769,-1.589,-1.5891,-1.5892,-1.5965,-1.5966,-1.5967,-1.5988,-1.5987,-1.5987,-1.5986,-1.6065,-1.6068,-1.6071,0,0,0,0,0,0,0,0,0,0,0,0,0,-1.5829,-1.577,-1.589,-1.5911,-1.5914,-1.5965,-1.5966,-1.5968,-1.5988,-1.5987,-1.5987,-1.5986,-1.6064,-1.6068,-1.6072,-1.6108,0,0,-1.6083,-1.6085,0,0,0,0,0,0,0,0,-1.5826,-1.5834,-1.5907,-1.591,-1.5913,-1.5966,-1.5952,-1.6015,-1.5988,-1.596,-1.5986,-1.5986,-1.6034,-1.604,-1.6055,-1.6112,-1.6115,-1.6083,-1.6086,-1.6087,-1.6088,0,0,0,0,0,0,0,-1.5821,-1.5831,-1.592,-1.5908,-1.5912,-1.5918,-1.5926,-1.5964,-1.6,-1.5962,-1.5964,-1.5972,-1.6035,-1.6052,-1.6057,-1.6116,-1.6083,-1.6087,-1.6089,-1.6091,-1.6207,-1.6208,0,0,0,0,0,0,-1.5813,-1.5827,-1.5918,-1.5922,-1.5867,-1.592,-1.5929,-1.595,-1.5999,-1.6006,-1.5973,-1.5973,-1.6046,-1.6053,-1.606,-1.6107,-1.6087,-1.6091,-1.6093,-1.6206,-1.6207,-1.6208,0,0,0,0,0,0,-1.581,-1.5821,-1.5915,-1.5875,-1.5887,-1.5923,-1.5946,-1.5952,-1.5968,-1.6007,-1.6014,-1.5983,-1.6045,-1.6055,-1.6096,-1.611,-1.6093,-1.6096,-1.6205,-1.6207,-1.6208,-1.6199,0,0,0,0,0,0,-1.5807,-1.582,-1.5833,-1.5875,-1.5889,-1.5948,-1.5947,-1.5954,-1.5975,-1.5976,-1.6019,-1.6025,-1.6046,-1.609,-1.61,-1.6115,-1.6099,-1.6204,-1.6206,-1.6207,-1.6199,-1.62,-1.6201,0,0,0,0,0,-1.5802,-1.5829,-1.5834,-1.5845,-1.5907,-1.5949,-1.5957,-1.5979,-1.5976,-1.599,-1.6015,-1.6024,-1.6107,-1.6094,-1.6105,-1.6121,-1.6204,-1.6205,-1.6207,-1.6198,-1.62,-1.6201,0,0,0,0,0,0,-1.5789,-1.5834,-1.5841,-1.5881,-1.5911,-1.5952,-1.5971,-1.5981,-1.6012,-1.6012,-1.6039,-1.6049,-1.6088,-1.6109,-1.6094,-1.616,-1.6155,-1.6159,-1.6144,-1.6147,-1.6148,-1.6142,-1.6102,0,0,0,0,0,-1.579,-1.5819,-1.5858,-1.589,-1.5904,-1.5935,-1.5954,-1.5969,-1.6001,-1.6014,-1.6042,-1.6073,-1.6106,-1.6128,-1.616,-1.6202,-1.6212,-1.6218,-1.622,-1.6221,-1.6224,-1.6248,-1.6251,-1.6214,-1.6214,-1.6214,0,0,-1.5794,-1.5823,-1.584,-1.5888,-1.5913,-1.5943,-1.5946,-1.5978,-1.6001,-1.6019,-1.6059,-1.6081,-1.6118,-1.6159,-1.6179,-1.6178,-1.6236,-1.6223,-1.6223,-1.6226,-1.625,-1.6254,-1.6257,-1.6216,-1.6215,-1.6215,0,0,-1.5816,-1.5841,-1.587,-1.5894,-1.5931,-1.5951,-1.5958,-1.5998,-1.6013,-1.6054,-1.6068,-1.6096,-1.6153,-1.6179,-1.6199,-1.6231,-1.6241,-1.6241,-1.6249,-1.6272,-1.6275,-1.6278,-1.6289,-1.6293,-1.6244,-1.6244,-1.6244,0,-1.5817,-1.5862,-1.5884,-1.5916,-1.5937,-1.5953,-1.5984,-1.6007,-1.6053,-1.6068,-1.6066,-1.6137,-1.6163,-1.6211,-1.6218,-1.6234,-1.6244,-1.6237,-1.6272,-1.6275,-1.6278,-1.629,-1.6294,-1.6244,-1.6244,-1.6244,-1.6244,0,-1.5861,-1.5893,-1.5912,-1.5955,-1.5978,-1.6009,-1.6037,-1.6058,-1.607,-1.6091,-1.6132,-1.6164,-1.6204,-1.6216,-1.6229,-1.6266,-1.6264,-1.6267,-1.6263,-1.6281,-1.6293,-1.6297,-1.6244,-1.6244,-1.6244,-1.6244,0,0,-1.5878,-1.5932,-1.5939,-1.5958,-1.6,-1.6025,-1.6057,-1.6095,-1.6113,-1.6144,-1.6172,-1.6219,-1.6222,-1.6245,-1.6261,-1.6281,-1.6305,-1.6282,-1.6283,-1.6285,-1.6349,-1.6346,-1.6351,-1.6312,-1.6312,-1.6313,-1.6346,0,-1.5906,-1.5962,-1.5983,-1.6029,-1.6059,-1.6075,-1.6103,-1.6132,-1.6152,-1.6181,-1.6204,-1.6237,-1.6238,-1.6252,-1.6273,-1.6298,-1.6318,-1.6296,-1.6339,-1.634,-1.6329,-1.6357,-1.6355,-1.6384,-1.635,-1.6351,-1.6351,0,-1.5946,-1.5977,-1.6026,-1.6064,-1.6077,-1.6102,-1.6138,-1.6165,-1.6199,-1.6212,-1.6238,-1.6252,-1.6287,-1.6281,-1.633,-1.6314,-1.6333,-1.6348,-1.6349,-1.6355,-1.6347,-1.6364,-1.6394,-1.6398,-1.6359,-1.6358,-1.6358,0,-1.5954,-1.6007,-1.6044,-1.606,-1.6105,-1.6122,-1.6142,-1.6175,-1.6196,-1.6228,-1.6243,-1.6279,-1.6298,-1.6326,-1.635,-1.6343,-1.6397,-1.6393,-1.641,-1.6409,-1.6421,-1.642,-1.6455,-1.6432,-1.6432,-1.6432,-1.6432,0,-1.5983,-1.6013,-1.6048,-1.607,-1.6104,-1.6128,-1.6161,-1.6182,-1.6211,-1.6239,-1.6255,-1.6281,-1.6311,-1.6341,-1.636,-1.6397,-1.6406,-1.6419,-1.6423,-1.6417,-1.6416,-1.643,-1.6429,-1.6433,-1.6433,-1.6433,-1.6432,0,-1.5998,-1.6022,-1.6063,-1.6102,-1.6113,-1.6136,-1.617,-1.6193,-1.6213,-1.6248,-1.6258,-1.629,-1.6326,-1.6353,-1.64,-1.6413,-1.6453,-1.6458,-1.6441,-1.6444,-1.646,-1.6458,-1.6506,-1.6513,-1.6485,-1.6485,-1.6485,0,-1.6016,-1.6039,-1.608,-1.6099,-1.6118,-1.6149,-1.617,-1.6195,-1.6217,-1.6256,-1.6275,-1.6312,-1.6342,-1.6399,-1.6428,-1.6464,-1.647,-1.6484,-1.6475,-1.6469,-1.6471,-1.6469,-1.6472,-1.6485,-1.6485,-1.6486,-1.6486,0,-1.6044,-1.6055,-1.6085,-1.6119,-1.6144,-1.6172,-1.6201,-1.6216,-1.6246,-1.627,-1.6306,-1.633,-1.6377,-1.6414,-1.6452,-1.6474,-1.6485,-1.6488,-1.6494,-1.6488,-1.6478,-1.6484,-1.6445,-1.6487,-1.6487,-1.6487,-1.6487,-1.6487,-1.6062,-1.6083,-1.6115,-1.6148,-1.6172,-1.6198,-1.6221,-1.6244,-1.6275,-1.6314,-1.6327,-1.6365,-1.6398,-1.6451,-1.6473,-1.6503,-1.6503,-1.6512,-1.6514,-1.6516,-1.6516,-1.6473,-1.651,-1.651,-1.651,-1.651,-1.651,0,-1.6092,-1.6113,-1.6143,-1.6182,-1.6208,-1.6215,-1.6247,-1.6268,-1.6301,-1.6331,-1.636,-1.6402,-1.6438,-1.6469,-1.6506,-1.6524,-1.653,-1.6533,-1.6532,-1.6537,-1.6513,-1.6505,-1.6528,-1.6528,-1.6528,-1.6528,-1.6528,-1.6528,-1.6111,-1.6147,-1.6161,-1.621,-1.6231,-1.6268,-1.6285,-1.631,-1.6334,-1.6379,-1.6408,-1.6428,-1.6458,-1.6498,-1.6531,-1.6539,-1.6552,-1.6554,-1.6564,-1.6541,-1.6539,-1.6537,-1.6529,-1.6556,-1.6557,-1.6585,-1.6585,-1.6585]},{"header":{"parameterUnit":"m.s-1","parameterCategory":1,"la1":30.2991,"la2":30.254,"lo1":-89.0895,"lo2":-89.0444,"dy":0.0017,"dx":0.0017,"nx":28,"ny":28,"refTime":"2025-05-19T03:00:00:Z","depth":0,"parameterNumber":3,"parameterNumberName":"V-component_of_WINDS"},"data":[0,0,0,0,0,0,0,0,0,0,0,0,0,0,0,0,0,0,0,0,0,0,0,0,0,0,0,0,0,0,0,0,0,0,0,0,0,0,0,0,0,0,0,0,0,0,0,0,0,0,0,0,0,0,0,0,0,0,6.454,6.4541,0,6.4602,6.4602,6.4603,6.4543,6.454,6.4538,6.4536,6.4595,6.4598,6.4602,0,0,0,0,0,0,0,0,0,0,0,0,0,6.4366,6.437,6.454,6.4541,6.4542,6.4602,6.4602,6.4603,6.4543,6.454,6.4538,6.4535,6.4593,6.4598,6.4602,0,0,0,0,0,0,0,0,0,0,0,0,0,6.4436,6.4371,6.454,6.4519,6.4518,6.4601,6.4602,6.4603,6.4544,6.454,6.4537,6.4533,6.4592,6.4597,6.4603,6.4709,0,0,6.462,6.4623,0,0,0,0,0,0,0,0,6.4432,6.4443,6.4522,6.4521,6.452,6.4561,6.4562,6.4639,6.4545,6.4534,6.4536,6.4532,6.4586,6.4592,6.4611,6.4711,6.4714,6.4621,6.4624,6.4626,6.4628,0,0,0,0,0,0,0,6.4428,6.444,6.4564,6.4523,6.4522,6.4505,6.4511,6.4577,6.4579,6.4535,6.453,6.4539,6.4585,6.4606,6.4612,6.4715,6.462,6.4625,6.4629,6.4631,6.4903,6.4907,0,0,0,0,0,0,6.4426,6.4436,6.4562,6.4566,6.4466,6.4511,6.4518,6.4551,6.4578,6.4579,6.4542,6.4536,6.4598,6.4605,6.4614,6.4738,6.4626,6.4632,6.4635,6.49,6.4904,6.4908,0,0,0,0,0,0,6.4422,6.4437,6.456,6.45,6.4514,6.4518,6.4556,6.4554,6.4575,6.4584,6.4583,6.4563,6.4595,6.4606,6.4685,6.474,6.4634,6.4639,6.4895,6.4901,6.4906,6.4989,0,0,0,0,0,0,6.4417,6.4437,6.4478,6.4502,6.4518,6.4632,6.4559,6.4558,6.4586,6.4578,6.4603,6.4604,6.4593,6.4677,6.4691,6.4745,6.4644,6.489,6.4898,6.4905,6.4982,6.4997,6.501,0,0,0,0,0,6.4411,6.4498,6.448,6.4496,6.457,6.4636,6.4645,6.4632,6.459,6.4631,6.4636,6.4603,6.4732,6.4686,6.4701,6.4758,6.4887,6.4896,6.4904,6.4975,6.4994,6.501,0,0,0,0,0,0,6.448,6.4501,6.4481,6.4579,6.4606,6.4625,6.4676,6.4652,6.4691,6.4682,6.4663,6.4669,6.4754,6.4764,6.4712,6.4861,6.4802,6.4814,6.4851,6.4869,6.4883,6.4878,6.4648,0,0,0,0,0,6.4506,6.4559,6.4574,6.4659,6.4674,6.4673,6.4701,6.4689,6.4716,6.4726,6.4737,6.4763,6.4809,6.484,6.4883,6.4983,6.4987,6.5029,6.5044,6.5056,6.5066,6.5118,6.5137,6.4937,6.4937,6.4937,0,0,6.4561,6.4579,6.4614,6.4673,6.4693,6.4746,6.4683,6.4743,6.4782,6.4735,6.4811,6.482,6.4848,6.4938,6.4978,6.4949,6.5122,6.5067,6.5076,6.508,6.5129,6.5148,6.5165,6.4943,6.4942,6.4941,0,0,6.4689,6.4709,6.4781,6.4802,6.4833,6.4832,6.4849,6.4872,6.4877,6.4953,6.4919,6.4964,6.5045,6.5065,6.5086,6.5222,6.5192,6.5236,6.5311,6.5362,6.5378,6.5391,6.5438,6.5455,6.5247,6.5247,6.5247,0,6.4753,6.4834,6.482,6.4883,6.4909,6.487,6.4942,6.4963,6.5006,6.5024,6.4991,6.509,6.5106,6.52,6.5233,6.5252,6.527,6.5233,6.5377,6.539,6.5403,6.5447,6.5465,6.5252,6.5251,6.5251,6.525,0,6.491,6.4967,6.5021,6.5065,6.5097,6.5164,6.5159,6.5193,6.5178,6.518,6.5257,6.5275,6.5321,6.5342,6.5328,6.5434,6.5415,6.538,6.532,6.5427,6.5469,6.5486,6.5259,6.5257,6.5256,6.5254,0,0,6.5082,6.5118,6.5138,6.5157,6.5188,6.5231,6.5295,6.534,6.5369,6.54,6.5452,6.5521,6.5489,6.5513,6.55,6.5546,6.565,6.5505,6.5505,6.553,6.5766,6.5791,6.5812,6.5631,6.5634,6.5637,6.5763,0,6.5209,6.5323,6.5312,6.5419,6.547,6.5434,6.549,6.5514,6.5518,6.556,6.5563,6.5612,6.5566,6.558,6.5624,6.5628,6.5697,6.5619,6.5678,6.568,6.5671,6.5833,6.586,6.5979,6.578,6.5782,6.5784,0,6.5373,6.5411,6.5524,6.5546,6.5567,6.5618,6.5658,6.57,6.5726,6.5726,6.5753,6.5732,6.5795,6.5735,6.582,6.5768,6.5791,6.5797,6.5801,6.5805,6.5738,6.584,6.6017,6.6034,6.581,6.5808,6.5806,0,6.5486,6.5565,6.5642,6.5659,6.5688,6.5724,6.5738,6.5761,6.5788,6.5823,6.5841,6.5882,6.5905,6.5937,6.5927,6.5885,6.6014,6.5954,6.6013,6.6014,6.6041,6.604,6.6223,6.6059,6.6059,6.6058,6.6058,0,6.5629,6.5699,6.5693,6.574,6.5816,6.5803,6.5878,6.5887,6.5908,6.5955,6.5926,6.597,6.5956,6.5999,6.5992,6.6063,6.6073,6.6073,6.607,6.6075,6.6075,6.6089,6.608,6.6063,6.6062,6.6061,6.606,0,6.5767,6.5766,6.5848,6.5869,6.5875,6.5931,6.5948,6.5991,6.5992,6.6052,6.6065,6.6067,6.6116,6.611,6.6165,6.616,6.6248,6.6236,6.6239,6.6236,6.6296,6.629,6.6494,6.6519,6.634,6.6342,6.6343,0,6.5858,6.5911,6.5938,6.5968,6.5984,6.6033,6.6061,6.605,6.608,6.6114,6.6153,6.62,6.6237,6.6317,6.6322,6.6363,6.6351,6.6419,6.6357,6.636,6.635,6.6347,6.6351,6.6431,6.6433,6.6435,6.6436,0,6.6019,6.6016,6.6059,6.6102,6.6137,6.617,6.6199,6.6225,6.6216,6.6251,6.6302,6.6331,6.6387,6.6433,6.6472,6.6484,6.6458,6.6456,6.6472,6.6477,6.6476,6.6476,6.6272,6.6451,6.645,6.6449,6.6448,6.6447,6.6135,6.618,6.6206,6.6254,6.6276,6.6304,6.6346,6.6353,6.6395,6.6441,6.6431,6.6488,6.6511,6.6561,6.6577,6.662,6.6595,6.6618,6.6624,6.6629,6.6636,6.6471,6.6627,6.6627,6.6626,6.6626,6.6626,0,6.6294,6.6308,6.6353,6.6396,6.6434,6.6408,6.6439,6.6472,6.6523,6.6548,6.6585,6.6642,6.6687,6.6695,6.6738,6.677,6.6759,6.6782,6.6778,6.6781,6.6657,6.6638,6.679,6.679,6.679,6.679,6.6789,6.6789,6.638,6.6455,6.6455,6.6538,6.6552,6.6609,6.6629,6.6654,6.6673,6.6739,6.6777,6.6783,6.68,6.6844,6.6883,6.6884,6.69,6.6927,6.6923,6.6807,6.679,6.6774,6.6757,6.6931,6.6931,6.7044,6.7045,6.7046]}]]